Find Starlink 32905

NORAD ID: 62923 Int'l Des: 2025-027 Owner: SPXS Country: US Constellation: starlink operational
LEOCIRCULAR

Live-Position

3D-Globus wird geladen...

Über Starlink 32905

Beschreibung wird geladen...

Nächste Überflüge

Passes for default location (London). Set your location on the main map for personalized predictions.

Höhenverlauf

Loading altitude history...

Zweizeiliger Elementsatz

1 62923U 25027S 26125.40411326 .00035044 00000-0 12766-2 0 9995
2 62923 42.9948 168.7769 0001061 264.3742 95.6989 15.27589863 70210
Epoch: 5. Mai 2026 • Age: 16 hours

Aktueller Status

Höhe 483.5 km
Geschwindigkeit 7.63 km/s
Subsatellitenpunkt 27.26°N, 57.78°E
Startdatum 8. Feb. 2025
Alter 1.2 years
Typ internet

Technische Details

Klassifizierung Payload
Masse 730.00 kg
Trockenmasse 700.00 kg
Gesamtmasse 730.00 kg
Länge 0.30 m
Durchmesser 4.10 m
Spannweite 29.00 m
Form Box + pan
Hersteller SPXS
Bus-Typ Starlink V2M
Phasenstatus In Orbit
Besitzer/Staat SPXS/US

Most Searched